Location: Unspecified
(0.0000°N, 0.0000°E)
Time: 19:23:46
(UTC+00:00)

STARLINK-11597 [DTC] - Pass Details

Date: 07 March 2026
Orbit: 355 x 358 km, 43.0° (Epoch: 18 April)

Event Time Altitude Azimuth Distance (km) Brightness Sun altitude
Exits shadow 05:39:22 - 230° (SW) 1,841 ? -7.9°
Reaches altitude 10° 05:40:38 10° 232° (SW) 1,316 ? -7.6°
Maximum altitude 05:43:33 64° 314° (NW) 392 ? -6.9°
Drops below altitude 10° 05:46:29 10° 37° (NE) 1,320 ? -6.1°
Sets 05:48:32 0° 40° (NE) 2,169 ? -5.6°
